{"data":{"norad_id":44323,"intl_designator":"2019-033B","name":"RCM-3","alt_names":[],"object_type":"PAYLOAD","status":"ACTIVE","operator":null,"country":"CA","launch_date":"2019-06-12","launch_site_code":"AFWTR","launch_vehicle":null,"mission":null,"orbit_class":"UNKNOWN","rcs_meters":null,"size_class":null,"mass_kg":null,"dimensions":null,"purposes":[],"wikipedia_slug":null,"has_3d_model":false,"image_url":null,"decayed_at":null,"tle_current":{"epoch":"2026-05-25T03:54:23.735808Z","epoch_age_seconds":67896,"freshness":"FRESH","line1":"1 44323U 19033B   26145.16277472  .00000159  00000+0  20900-4 0  9995","line2":"2 44323  97.7595 153.0265 0001509  89.6900 270.4492 14.92588530378662","mean_motion":14.9258853,"eccentricity":0.0001509,"inclination_deg":97.7595,"raan_deg":153.0265,"arg_perigee_deg":89.69,"mean_anomaly_deg":270.4492,"bstar":2.09e-5,"rev_number":37866,"period_min":96.476689392756,"perigee_km":588.81633159137,"apogee_km":590.91927544108,"semimajor_km":6968.0048035162,"source":"CELESTRAK","updated_at":"2026-05-25T13:37:55.966970Z"}}}